[[{"header":{"parameterUnit":"m.s-1","parameterCategory":2,"la1":30.2991,"la2":30.254,"lo1":-89.0895,"lo2":-89.0444,"dy":0.0017,"dx":0.0017,"nx":28,"ny":28,"refTime":"2024-02-18T03:00:00:Z","depth":"0","parameterNumber":2,"parameterNumberName":"U-component_of_CURRENTS"},"data":[0,0,0,0,0,0,0,0,0,0,0,0,0,0,0,0,0,0,0,0,0,0,0,0,0,0,0,0,0,0,0,0,0,0,0,0,0,0,0,0,0,0,0,0,0,0,0,0,0,0,0,0,0,0,0,0,0,0,0.2434,0.2434,0,0.2468,0.2469,0.2469,0.2467,0.2467,0.2466,0.2466,0.2451,0.2451,0.2451,0,0,0,0,0,0,0,0,0,0,0,0,0,0.2365,0.2366,0.2434,0.2434,0.2435,0.2468,0.2469,0.2469,0.2467,0.2466,0.2466,0.2466,0.2451,0.2451,0.2451,0,0,0,0,0,0,0,0,0,0,0,0,0,0.2394,0.2366,0.2434,0.244,0.2441,0.2468,0.2469,0.2469,0.2467,0.2466,0.2466,0.2466,0.2451,0.2451,0.2451,0.2458,0,0,0.245,0.245,0,0,0,0,0,0,0,0,0.2393,0.2396,0.2438,0.244,0.2441,0.2465,0.2439,0.2463,0.2467,0.2454,0.2466,0.2466,0.2453,0.2453,0.2457,0.2457,0.2456,0.245,0.245,0.245,0.245,0,0,0,0,0,0,0,0.2391,0.2395,0.2445,0.2439,0.2441,0.2441,0.2444,0.2444,0.2453,0.2455,0.2456,0.2464,0.2453,0.2458,0.2457,0.2456,0.245,0.245,0.245,0.245,0.2497,0.2499,0,0,0,0,0,0,0.2392,0.2393,0.2444,0.2446,0.2418,0.2443,0.2446,0.2456,0.2454,0.2454,0.2464,0.2464,0.2458,0.2457,0.2456,0.2494,0.245,0.245,0.245,0.2496,0.2498,0.2499,0,0,0,0,0,0,0.2391,0.2396,0.2442,0.2422,0.2428,0.2445,0.2455,0.2457,0.2465,0.2462,0.2461,0.2472,0.2458,0.2457,0.2469,0.2492,0.245,0.245,0.2494,0.2497,0.2499,0.255,0,0,0,0,0,0,0.2388,0.2396,0.24,0.2423,0.243,0.2466,0.2456,0.2458,0.2472,0.2472,0.2468,0.2466,0.2457,0.2469,0.2468,0.2491,0.2449,0.2493,0.2495,0.2498,0.2546,0.2553,0.2559,0,0,0,0,0,0.2386,0.2394,0.24,0.2406,0.2437,0.2467,0.2471,0.2479,0.2473,0.2483,0.2483,0.2466,0.2485,0.247,0.2469,0.2492,0.2491,0.2495,0.2498,0.2543,0.2552,0.2559,0,0,0,0,0,0,0.2361,0.2396,0.2403,0.242,0.2446,0.2468,0.2478,0.2483,0.2492,0.249,0.248,0.2479,0.2501,0.249,0.2474,0.2515,0.2487,0.249,0.2522,0.253,0.2537,0.2538,0.2449,0,0,0,0,0,0.2361,0.2379,0.2411,0.2425,0.244,0.246,0.2471,0.2481,0.2494,0.2497,0.2496,0.25,0.2514,0.2516,0.2523,0.254,0.2548,0.2556,0.2563,0.2568,0.257,0.2612,0.2622,0.251,0.251,0.251,0,0,0.2352,0.2377,0.2384,0.2422,0.244,0.2467,0.2465,0.249,0.2512,0.2494,0.2515,0.2522,0.2525,0.2551,0.2559,0.2542,0.2607,0.2572,0.2577,0.2576,0.2616,0.2627,0.2637,0.2512,0.2511,0.2511,0,0,0.2352,0.2372,0.2389,0.2417,0.2455,0.2473,0.2483,0.2512,0.2525,0.2549,0.255,0.2572,0.258,0.2597,0.2604,0.265,0.2643,0.2651,0.2681,0.2722,0.2732,0.274,0.2775,0.2786,0.2651,0.2651,0.2651,0,0.234,0.2372,0.2398,0.2428,0.2453,0.2477,0.2504,0.2526,0.2554,0.2573,0.2561,0.2606,0.2605,0.2651,0.2668,0.2665,0.2683,0.2649,0.2731,0.2739,0.2747,0.278,0.2792,0.2654,0.2654,0.2653,0.2653,0,0.236,0.2387,0.2403,0.245,0.2478,0.2508,0.2547,0.2572,0.2587,0.2611,0.2658,0.2667,0.2696,0.2703,0.2696,0.2757,0.2751,0.2737,0.2709,0.2761,0.2793,0.2805,0.2658,0.2657,0.2656,0.2656,0,0,0.2325,0.2401,0.2406,0.2434,0.2495,0.2519,0.2564,0.2616,0.2654,0.2679,0.2728,0.2756,0.2768,0.2777,0.2782,0.281,0.2883,0.2796,0.2797,0.2828,0.2975,0.299,0.3003,0.2883,0.2885,0.2887,0.2979,0,0.2333,0.2387,0.2426,0.2476,0.2508,0.2555,0.2601,0.2651,0.269,0.2744,0.2772,0.2817,0.2796,0.2817,0.2847,0.2878,0.2913,0.2859,0.2922,0.2923,0.2929,0.3017,0.2963,0.3042,0.299,0.2991,0.2993,0,0.2336,0.2378,0.2424,0.2503,0.2523,0.2557,0.2636,0.2685,0.2769,0.28,0.285,0.2875,0.2935,0.2903,0.2984,0.2951,0.2969,0.2982,0.2986,0.2988,0.296,0.2981,0.3064,0.3012,0.301,0.3008,0.3007,0,0.2296,0.2373,0.2409,0.2436,0.2527,0.256,0.2615,0.2701,0.2738,0.2843,0.2874,0.2952,0.2992,0.3031,0.3065,0.3032,0.315,0.3107,0.3138,0.3138,0.3098,0.3092,0.3136,0.3166,0.3165,0.3165,0.3165,0,0.2287,0.2316,0.2395,0.2417,0.2468,0.2548,0.2608,0.2676,0.2764,0.2836,0.2901,0.2968,0.3025,0.3094,0.3109,0.3178,0.3193,0.3168,0.3175,0.3116,0.3111,0.3066,0.3025,0.3168,0.3168,0.3167,0.3166,0,0.2234,0.2287,0.2331,0.2422,0.2446,0.2486,0.2576,0.263,0.2724,0.2818,0.2851,0.2983,0.311,0.3158,0.3249,0.324,0.3226,0.3307,0.3236,0.3233,0.3196,0.316,0.3077,0.2979,0.3358,0.3359,0.336,0,0.2212,0.2228,0.2304,0.2328,0.2368,0.2432,0.2484,0.259,0.2649,0.284,0.2887,0.304,0.3152,0.3293,0.3343,0.3401,0.328,0.3357,0.3281,0.3217,0.3181,0.3023,0.2933,0.3248,0.3248,0.3248,0.3248,0,0.2165,0.2188,0.2221,0.2265,0.2312,0.2362,0.245,0.247,0.2636,0.2727,0.2891,0.3,0.3206,0.328,0.3375,0.3397,0.3226,0.3358,0.3311,0.3128,0.294,0.2841,0.316,0.3248,0.3248,0.3248,0.3248,0.3248,0.2114,0.2119,0.2156,0.2194,0.224,0.2281,0.2293,0.2398,0.2477,0.2614,0.2811,0.2962,0.3174,0.3322,0.3318,0.3324,0.324,0.3253,0.3225,0.3078,0.2947,0.3273,0.3355,0.3356,0.3357,0.3357,0.3358,0,0.2042,0.2058,0.2089,0.2118,0.213,0.2191,0.2257,0.2263,0.2327,0.254,0.2671,0.2923,0.3039,0.3177,0.3306,0.3218,0.3019,0.3135,0.29,0.2822,0.3156,0.3117,0.3128,0.3128,0.3128,0.3128,0.3128,0.3128,0.2002,0.1994,0.2013,0.1995,0.2017,0.2,0.2013,0.2051,0.2168,0.2334,0.2507,0.2678,0.302,0.3246,0.325,0.3158,0.2884,0.2784,0.2712,0.2977,0.2985,0.2991,0.2946,0.2921,0.2921,0.2274,0.2269,0.2266]},{"header":{"parameterUnit":"m.s-1","parameterCategory":2,"la1":30.2991,"la2":30.254,"lo1":-89.0895,"lo2":-89.0444,"dy":0.0017,"dx":0.0017,"nx":28,"ny":28,"refTime":"2024-02-18T03:00:00:Z","depth":"0","parameterNumber":3,"parameterNumberName":"V-component_of_CURRENTS"},"data":[0,0,0,0,0,0,0,0,0,0,0,0,0,0,0,0,0,0,0,0,0,0,0,0,0,0,0,0,0,0,0,0,0,0,0,0,0,0,0,0,0,0,0,0,0,0,0,0,0,0,0,0,0,0,0,0,0,0,-0.0256,-0.0257,0,-0.0328,-0.0329,-0.033,-0.0377,-0.0378,-0.0378,-0.0378,-0.0432,-0.0433,-0.0434,0,0,0,0,0,0,0,0,0,0,0,0,0,-0.0208,-0.0208,-0.0256,-0.0257,-0.0257,-0.0328,-0.0329,-0.033,-0.0377,-0.0378,-0.0378,-0.0378,-0.0431,-0.0433,-0.0434,0,0,0,0,0,0,0,0,0,0,0,0,0,-0.025,-0.0208,-0.0256,-0.0289,-0.0293,-0.0328,-0.0329,-0.0331,-0.0377,-0.0378,-0.0378,-0.0378,-0.0431,-0.0433,-0.0435,-0.0439,0,0,-0.044,-0.0441,0,0,0,0,0,0,0,0,-0.0247,-0.0251,-0.0283,-0.0287,-0.0291,-0.0343,-0.0332,-0.0366,-0.0377,-0.0346,-0.0378,-0.0378,-0.04,-0.0404,-0.0418,-0.0441,-0.0444,-0.044,-0.0441,-0.0442,-0.0443,0,0,0,0,0,0,0,-0.0244,-0.0249,-0.0285,-0.0284,-0.0289,-0.0317,-0.0323,-0.0339,-0.037,-0.0349,-0.0352,-0.0359,-0.0402,-0.0417,-0.042,-0.0444,-0.044,-0.0442,-0.0443,-0.0444,-0.048,-0.048,0,0,0,0,0,0,-0.0231,-0.0246,-0.0283,-0.0287,-0.0269,-0.0317,-0.0324,-0.0327,-0.0371,-0.0377,-0.0358,-0.0361,-0.0413,-0.0418,-0.0422,-0.0421,-0.0442,-0.0444,-0.0445,-0.048,-0.048,-0.048,0,0,0,0,0,0,-0.0229,-0.0233,-0.028,-0.0268,-0.0276,-0.0317,-0.032,-0.0328,-0.034,-0.0378,-0.0385,-0.0362,-0.0414,-0.0419,-0.0433,-0.0424,-0.0445,-0.0446,-0.048,-0.048,-0.048,-0.0424,0,0,0,0,0,0,-0.0228,-0.0232,-0.0227,-0.0267,-0.0276,-0.029,-0.032,-0.0329,-0.0343,-0.0347,-0.0383,-0.0389,-0.0414,-0.043,-0.0434,-0.0427,-0.0448,-0.0481,-0.048,-0.048,-0.0426,-0.0422,-0.0419,0,0,0,0,0,-0.0226,-0.0214,-0.0226,-0.0231,-0.0268,-0.029,-0.0297,-0.0329,-0.0343,-0.0342,-0.037,-0.0388,-0.0432,-0.0431,-0.0436,-0.0429,-0.0481,-0.048,-0.048,-0.0428,-0.0423,-0.0419,0,0,0,0,0,0,-0.0188,-0.0219,-0.0233,-0.0231,-0.0254,-0.0297,-0.0298,-0.0322,-0.0344,-0.0345,-0.0384,-0.0391,-0.0401,-0.0422,-0.0421,-0.044,-0.046,-0.0461,-0.0418,-0.0414,-0.041,-0.0388,-0.0449,0,0,0,0,0,-0.0177,-0.0178,-0.0212,-0.021,-0.0218,-0.0257,-0.0269,-0.029,-0.0317,-0.0327,-0.0355,-0.0383,-0.0406,-0.0414,-0.0437,-0.0443,-0.0466,-0.0444,-0.044,-0.0436,-0.0423,-0.0459,-0.0457,-0.0479,-0.0479,-0.0479,0,0,-0.0163,-0.0179,-0.018,-0.0202,-0.0223,-0.0224,-0.0265,-0.0275,-0.0278,-0.0328,-0.0336,-0.0369,-0.0405,-0.0416,-0.0422,-0.0431,-0.0442,-0.0436,-0.0433,-0.0421,-0.0458,-0.0456,-0.0454,-0.0479,-0.0479,-0.0479,0,0,-0.0129,-0.0146,-0.0134,-0.0149,-0.0172,-0.0196,-0.0194,-0.0231,-0.0249,-0.0263,-0.0301,-0.0327,-0.0359,-0.0386,-0.0403,-0.0391,-0.0422,-0.0399,-0.0359,-0.0394,-0.0392,-0.0391,-0.0412,-0.0413,-0.0395,-0.0395,-0.0395,0,-0.0109,-0.01,-0.0133,-0.0125,-0.013,-0.0177,-0.0162,-0.0187,-0.0225,-0.0234,-0.0255,-0.0311,-0.0345,-0.036,-0.036,-0.0381,-0.0401,-0.0371,-0.0388,-0.0387,-0.0387,-0.0409,-0.0411,-0.0393,-0.0393,-0.0393,-0.0393,0,-0.007,-0.0062,-0.0055,-0.006,-0.0069,-0.0065,-0.0099,-0.011,-0.0138,-0.0169,-0.0194,-0.0246,-0.0278,-0.0298,-0.0325,-0.0337,-0.0352,-0.038,-0.0395,-0.0381,-0.0406,-0.0409,-0.0389,-0.039,-0.039,-0.0391,0,0,-0.0023,-0.0025,-0.0022,-0.0011,-0.0033,-0.0034,-0.0035,-0.0051,-0.0048,-0.0099,-0.01,-0.0158,-0.0194,-0.0215,-0.0259,-0.0289,-0.0312,-0.0325,-0.0329,-0.0339,-0.0377,-0.0382,-0.0386,-0.0342,-0.0343,-0.0343,-0.0394,0,0.0019,0.0054,0.0037,0.007,0.0086,0.0049,0.0058,0.0035,0.0,-0.0014,-0.0079,-0.0101,-0.0161,-0.0173,-0.0215,-0.0284,-0.0317,-0.0294,-0.0396,-0.0398,-0.0399,-0.0389,-0.037,-0.0413,-0.0397,-0.0397,-0.0398,0,0.0066,0.0083,0.0126,0.0143,0.0148,0.0159,0.0162,0.0162,0.0123,0.0094,0.005,-0.0004,-0.0055,-0.011,-0.0219,-0.0201,-0.0279,-0.0339,-0.0343,-0.0366,-0.0409,-0.0428,-0.042,-0.0589,-0.0403,-0.0402,-0.0402,0,0.012,0.0145,0.0184,0.0187,0.0199,0.0215,0.022,0.0198,0.0206,0.0163,0.016,0.0078,0.0053,-0.006,-0.0188,-0.0204,-0.0304,-0.0349,-0.0427,-0.0428,-0.044,-0.0442,-0.0599,-0.0425,-0.0425,-0.0425,-0.0425,0,0.0171,0.0202,0.0214,0.0236,0.029,0.0276,0.0321,0.0306,0.0299,0.0333,0.0224,0.0236,0.0065,-0.0016,-0.0152,-0.0286,-0.0282,-0.041,-0.044,-0.042,-0.0419,-0.059,-0.0691,-0.0427,-0.0427,-0.0426,-0.0426,0,0.0225,0.0231,0.028,0.0306,0.0318,0.036,0.0393,0.0427,0.0403,0.0444,0.0438,0.0357,0.0258,0.0081,-0.0089,-0.0222,-0.0459,-0.0416,-0.0372,-0.0396,-0.0632,-0.073,-0.0915,-0.0982,-0.0513,-0.0513,-0.0513,0,0.0255,0.0288,0.0336,0.0376,0.0392,0.0442,0.0489,0.0482,0.0523,0.0535,0.0574,0.0487,0.0457,0.0194,-0.0057,-0.0295,-0.0464,-0.0441,-0.0479,-0.0635,-0.0767,-0.0844,-0.0892,-0.0475,-0.0475,-0.0475,-0.0475,0,0.0318,0.0336,0.0378,0.0459,0.0515,0.0577,0.064,0.0686,0.071,0.0748,0.0804,0.0782,0.0536,0.0317,-0.0024,-0.0206,-0.0562,-0.0448,-0.063,-0.0761,-0.0836,-0.0917,-0.0449,-0.0475,-0.0475,-0.0475,-0.0475,-0.0475,0.0367,0.0411,0.0471,0.0551,0.062,0.0714,0.0785,0.0859,0.0951,0.1039,0.1007,0.1027,0.0669,0.021,-0.0066,-0.0557,-0.0576,-0.0705,-0.0812,-0.0875,-0.0942,-0.0463,-0.0514,-0.0514,-0.0514,-0.0515,-0.0515,0,0.0429,0.0478,0.0558,0.0657,0.0752,0.077,0.0893,0.0979,0.1117,0.1208,0.1261,0.1128,0.0674,0.0202,-0.0458,-0.0834,-0.098,-0.1056,-0.1174,-0.1206,-0.0794,-0.0794,-0.0883,-0.0883,-0.0883,-0.0883,-0.0883,-0.0883,0.0463,0.0551,0.0592,0.0755,0.083,0.0963,0.1044,0.1173,0.1272,0.1413,0.1459,0.1446,0.11,-0.0147,-0.1014,-0.1228,-0.1481,-0.1556,-0.1689,-0.1429,-0.1404,-0.1381,-0.1405,-0.1622,-0.1623,-0.2038,-0.2043,-0.2046]}],[{"header":{"parameterUnit":"m.s-1","parameterCategory":2,"la1":30.2991,"la2":30.254,"lo1":-89.0895,"lo2":-89.0444,"dy":0.0017,"dx":0.0017,"nx":28,"ny":28,"refTime":"2024-02-18T03:00:00:Z","depth":"2","parameterNumber":2,"parameterNumberName":"U-component_of_CURRENTS"},"data":[0,0,0,0,0,0,0,0,0,0,0,0,0,0,0,0,0,0,0,0,0,0,0,0,0,0,0,0,0,0,0,0,0,0,0,0,0,0,0,0,0,0,0,0,0,0,0,0,0,0,0,0,0,0,0,0,0,0,0.2188,0.2188,0,0.2227,0.2227,0.2228,0.2235,0.2235,0.2235,0.2235,0.2238,0.2239,0.2239,0,0,0,0,0,0,0,0,0,0,0,0,0,0.2118,0.2119,0.2188,0.2188,0.2189,0.2227,0.2227,0.2228,0.2235,0.2235,0.2235,0.2235,0.2238,0.2239,0.2239,0,0,0,0,0,0,0,0,0,0,0,0,0,0.2149,0.2119,0.2187,0.2199,0.2201,0.2227,0.2227,0.2228,0.2235,0.2235,0.2235,0.2235,0.2238,0.2239,0.2239,0.2243,0,0,0.224,0.224,0,0,0,0,0,0,0,0,0.2148,0.2152,0.2197,0.2198,0.22,0.2228,0.2204,0.2232,0.2235,0.2219,0.2235,0.2234,0.2233,0.2234,0.2239,0.2243,0.2244,0.224,0.224,0.224,0.224,0,0,0,0,0,0,0,0.2145,0.215,0.2201,0.2198,0.22,0.2202,0.2206,0.221,0.2224,0.2221,0.2222,0.223,0.2234,0.2238,0.2239,0.2244,0.224,0.224,0.224,0.224,0.2298,0.2299,0,0,0,0,0,0,0.2146,0.2148,0.2199,0.2202,0.2176,0.2204,0.2208,0.2217,0.2225,0.2227,0.223,0.2231,0.2238,0.2238,0.2239,0.2285,0.224,0.224,0.224,0.2296,0.2298,0.23,0,0,0,0,0,0,0.2144,0.215,0.2198,0.2178,0.2184,0.2206,0.2215,0.2218,0.2232,0.2233,0.2234,0.2243,0.2238,0.2239,0.2258,0.2283,0.224,0.2241,0.2295,0.2297,0.2299,0.235,0,0,0,0,0,0,0.2142,0.2149,0.2157,0.2178,0.2186,0.2223,0.2216,0.2219,0.2238,0.2239,0.2244,0.2244,0.2238,0.2258,0.2258,0.2283,0.2241,0.2293,0.2296,0.2298,0.2347,0.2354,0.236,0,0,0,0,0,0.214,0.215,0.2157,0.2163,0.2195,0.2224,0.2229,0.2241,0.2239,0.2251,0.2258,0.2244,0.2274,0.2259,0.2259,0.2284,0.2292,0.2295,0.2298,0.2344,0.2352,0.2359,0,0,0,0,0,0,0.212,0.2152,0.216,0.2179,0.2205,0.2227,0.224,0.2248,0.2262,0.2263,0.2258,0.2259,0.2288,0.228,0.2263,0.231,0.2282,0.2285,0.2317,0.2325,0.2331,0.2331,0.2241,0,0,0,0,0,0.2121,0.2139,0.217,0.2186,0.2201,0.2222,0.2236,0.2247,0.2263,0.227,0.2275,0.2283,0.23,0.2307,0.2316,0.2338,0.2344,0.2356,0.2362,0.2368,0.2369,0.2407,0.2417,0.231,0.231,0.231,0,0,0.2116,0.2139,0.2148,0.2184,0.2204,0.223,0.223,0.2257,0.228,0.2268,0.2296,0.2305,0.2312,0.2341,0.2353,0.2337,0.2404,0.2372,0.2376,0.2375,0.2412,0.2422,0.2431,0.2312,0.2311,0.2311,0,0,0.212,0.214,0.2158,0.2185,0.2224,0.224,0.2251,0.2282,0.2298,0.2327,0.233,0.2356,0.2371,0.2388,0.2397,0.2444,0.2439,0.2448,0.2479,0.2517,0.2526,0.2534,0.2565,0.2575,0.245,0.245,0.245,0,0.2112,0.2143,0.2168,0.2197,0.2221,0.2247,0.2273,0.2297,0.2329,0.235,0.2342,0.2392,0.2396,0.2442,0.246,0.2459,0.2476,0.2448,0.2525,0.2533,0.254,0.257,0.2581,0.2453,0.2453,0.2452,0.2452,0,0.2133,0.2161,0.2177,0.2222,0.2249,0.228,0.2317,0.2345,0.2365,0.239,0.244,0.2453,0.2484,0.2493,0.249,0.2549,0.2544,0.253,0.2504,0.2554,0.2582,0.2593,0.2457,0.2456,0.2455,0.2454,0,0,0.2106,0.2177,0.2182,0.221,0.2268,0.229,0.2337,0.2388,0.2427,0.2457,0.2507,0.254,0.2554,0.2565,0.2572,0.26,0.2669,0.2589,0.2589,0.2617,0.2754,0.2749,0.2759,0.2671,0.2673,0.2674,0.2757,0,0.2115,0.2166,0.2202,0.2251,0.2281,0.2327,0.2373,0.2422,0.2464,0.2519,0.255,0.2597,0.2581,0.2605,0.2634,0.2664,0.2697,0.2648,0.2703,0.2705,0.2692,0.2772,0.2576,0.2633,0.2766,0.2768,0.2769,0,0.212,0.2158,0.2203,0.2277,0.2296,0.2331,0.2408,0.2457,0.2541,0.2574,0.2627,0.2654,0.2714,0.2685,0.2762,0.2734,0.275,0.2762,0.2766,0.2747,0.2719,0.2603,0.2646,0.2786,0.2785,0.2784,0.2782,0,0.2083,0.2156,0.2191,0.2216,0.2302,0.2336,0.239,0.2474,0.2513,0.2618,0.2652,0.2728,0.277,0.2805,0.2839,0.2809,0.2916,0.2877,0.2886,0.2886,0.2723,0.2705,0.293,0.293,0.2929,0.2929,0.2929,0,0.2075,0.2104,0.2179,0.22,0.2252,0.2326,0.2389,0.2456,0.2543,0.2612,0.268,0.2742,0.2802,0.2865,0.2878,0.2931,0.2955,0.2913,0.2917,0.2737,0.272,0.2846,0.2835,0.2932,0.2932,0.2931,0.293,0,0.2025,0.2076,0.2119,0.2206,0.2233,0.2273,0.2366,0.2417,0.2512,0.2604,0.2638,0.276,0.2873,0.2921,0.3002,0.2985,0.3029,0.3034,0.2823,0.2802,0.2959,0.295,0.3055,0.3056,0.3057,0.3057,0.3057,0,0.2005,0.2021,0.2099,0.2122,0.2163,0.2229,0.2279,0.2385,0.244,0.2621,0.2662,0.2805,0.2895,0.3014,0.3039,0.3081,0.3086,0.2899,0.2807,0.2984,0.2977,0.2967,0.2957,0.2608,0.2605,0.2602,0.26,0,0.1961,0.1987,0.202,0.2066,0.2114,0.2163,0.2249,0.2269,0.2426,0.2508,0.2649,0.274,0.2906,0.2884,0.2955,0.2944,0.2879,0.2848,0.3096,0.2617,0.2572,0.2562,0.2565,0.2576,0.2578,0.258,0.2581,0.2582,0.1919,0.1924,0.1962,0.2002,0.2049,0.2086,0.2098,0.2194,0.2264,0.2379,0.2547,0.2625,0.2712,0.2733,0.2684,0.2654,0.2836,0.2693,0.2697,0.2705,0.2649,0.2609,0.2608,0.2611,0.2613,0.2615,0.2617,0,0.1854,0.187,0.1901,0.1933,0.1943,0.2005,0.2063,0.206,0.2112,0.2272,0.2372,0.2268,0.2298,0.2366,0.2307,0.2335,0.2258,0.2227,0.2096,0.2127,0.2152,0.206,0.1867,0.1864,0.1861,0.1858,0,0,0.1818,0.1812,0.1828,0.1813,0.1839,0.1823,0.1833,0.1854,0.1929,0.1959,0.2004,0.221,0.2334,0.206,0.2058,0.1949,0.2005,0.1881,0.25,0.238,0.2399,0.2463,0.2365,0,0,0,0,0]},{"header":{"parameterUnit":"m.s-1","parameterCategory":2,"la1":30.2991,"la2":30.254,"lo1":-89.0895,"lo2":-89.0444,"dy":0.0017,"dx":0.0017,"nx":28,"ny":28,"refTime":"2024-02-18T03:00:00:Z","depth":"2","parameterNumber":3,"parameterNumberName":"V-component_of_CURRENTS"},"data":[0,0,0,0,0,0,0,0,0,0,0,0,0,0,0,0,0,0,0,0,0,0,0,0,0,0,0,0,0,0,0,0,0,0,0,0,0,0,0,0,0,0,0,0,0,0,0,0,0,0,0,0,0,0,0,0,0,0,-0.0041,-0.0041,0,-0.0112,-0.0112,-0.0113,-0.0161,-0.0161,-0.0161,-0.0162,-0.0219,-0.022,-0.0221,0,0,0,0,0,0,0,0,0,0,0,0,0,0.0009,0.0008,-0.0041,-0.0041,-0.0042,-0.0111,-0.0112,-0.0113,-0.0161,-0.0161,-0.0161,-0.0162,-0.0219,-0.022,-0.0221,0,0,0,0,0,0,0,0,0,0,0,0,0,-0.0033,0.0008,-0.004,-0.0074,-0.0078,-0.0111,-0.0112,-0.0114,-0.0161,-0.0161,-0.0162,-0.0162,-0.0218,-0.022,-0.0222,-0.0225,0,0,-0.0227,-0.0228,0,0,0,0,0,0,0,0,-0.003,-0.0035,-0.0068,-0.0072,-0.0076,-0.0127,-0.0116,-0.015,-0.0161,-0.013,-0.0162,-0.0162,-0.0186,-0.0191,-0.0204,-0.0227,-0.023,-0.0228,-0.0229,-0.023,-0.023,0,0,0,0,0,0,0,-0.0027,-0.0032,-0.0069,-0.0069,-0.0074,-0.0101,-0.0107,-0.0123,-0.0155,-0.0132,-0.0136,-0.0143,-0.0189,-0.0202,-0.0206,-0.0231,-0.0228,-0.0229,-0.023,-0.0231,-0.0269,-0.0269,0,0,0,0,0,0,-0.0015,-0.0029,-0.0067,-0.0071,-0.0053,-0.0101,-0.0108,-0.0111,-0.0155,-0.0162,-0.0142,-0.0145,-0.0199,-0.0204,-0.0208,-0.021,-0.023,-0.0231,-0.0232,-0.0269,-0.0269,-0.0269,0,0,0,0,0,0,-0.0014,-0.0017,-0.0064,-0.0052,-0.006,-0.0101,-0.0104,-0.0112,-0.0126,-0.0163,-0.017,-0.0148,-0.0199,-0.0205,-0.022,-0.0213,-0.0232,-0.0234,-0.0269,-0.0269,-0.0269,-0.0217,0,0,0,0,0,0,-0.0012,-0.0016,-0.0013,-0.0051,-0.006,-0.0076,-0.0104,-0.0113,-0.0129,-0.0133,-0.017,-0.0176,-0.02,-0.0217,-0.0222,-0.0216,-0.0235,-0.0269,-0.0269,-0.0269,-0.0219,-0.0215,-0.0212,0,0,0,0,0,-0.001,-0.0,-0.0013,-0.0017,-0.0054,-0.0075,-0.0082,-0.0114,-0.0129,-0.0129,-0.0157,-0.0175,-0.022,-0.0219,-0.0225,-0.0218,-0.0269,-0.0269,-0.0269,-0.022,-0.0216,-0.0212,0,0,0,0,0,0,0.0023,-0.0006,-0.002,-0.002,-0.0042,-0.0083,-0.0086,-0.0109,-0.0132,-0.0135,-0.0172,-0.0179,-0.0191,-0.0211,-0.021,-0.023,-0.0248,-0.0249,-0.0209,-0.0205,-0.0201,-0.0181,-0.0237,0,0,0,0,0,0.0032,0.0031,-0.0001,-0.0001,-0.0009,-0.0047,-0.0059,-0.008,-0.0106,-0.0118,-0.0146,-0.0173,-0.0195,-0.0204,-0.0227,-0.0233,-0.0256,-0.0235,-0.0231,-0.0228,-0.0216,-0.025,-0.0249,-0.0268,-0.0268,-0.0268,0,0,0.0044,0.0029,0.0027,0.0006,-0.0014,-0.0016,-0.0055,-0.0067,-0.007,-0.0118,-0.0129,-0.0161,-0.0194,-0.0206,-0.0213,-0.0221,-0.0235,-0.0227,-0.0224,-0.0214,-0.025,-0.0248,-0.0246,-0.0267,-0.0268,-0.0268,0,0,0.0073,0.0056,0.0067,0.0053,0.0029,0.0008,0.0008,-0.0028,-0.0046,-0.0062,-0.0098,-0.0123,-0.0155,-0.0179,-0.0195,-0.0184,-0.0216,-0.0192,-0.0155,-0.0189,-0.0188,-0.0187,-0.0212,-0.0214,-0.0189,-0.0189,-0.0189,0,0.0089,0.0098,0.0067,0.0074,0.0069,0.0024,0.0037,0.0014,-0.0024,-0.0033,-0.0056,-0.011,-0.0142,-0.0155,-0.0155,-0.0174,-0.0196,-0.0167,-0.0184,-0.0183,-0.0183,-0.021,-0.0212,-0.0186,-0.0187,-0.0187,-0.0187,0,0.0125,0.0131,0.0137,0.0133,0.0125,0.0127,0.0095,0.0084,0.0055,0.0026,0.0001,-0.0049,-0.008,-0.0098,-0.0123,-0.0135,-0.0152,-0.0176,-0.0191,-0.0178,-0.0207,-0.0211,-0.0183,-0.0184,-0.0184,-0.0185,0,0,0.0162,0.0163,0.0166,0.0178,0.0157,0.0156,0.0155,0.014,0.0141,0.0092,0.0089,0.0035,-0.0001,-0.0021,-0.0061,-0.0091,-0.0116,-0.0126,-0.0129,-0.0145,-0.0184,-0.0198,-0.0204,-0.0144,-0.0144,-0.0144,-0.0205,0,0.02,0.0234,0.022,0.0251,0.0268,0.0233,0.0242,0.022,0.0186,0.017,0.011,0.0088,0.0031,0.0017,-0.0023,-0.009,-0.0123,-0.0097,-0.02,-0.0203,-0.0212,-0.0208,-0.0181,-0.0233,-0.0209,-0.0209,-0.021,0,0.0242,0.0261,0.0301,0.0321,0.0326,0.0335,0.0338,0.0338,0.0301,0.0272,0.0228,0.0175,0.0126,0.0075,-0.0033,-0.0014,-0.0091,-0.0148,-0.0153,-0.0183,-0.0223,-0.0244,-0.0241,-0.0216,-0.0215,-0.0215,-0.0215,0,0.029,0.0317,0.0354,0.0358,0.0372,0.0385,0.0393,0.037,0.0378,0.0335,0.0329,0.025,0.0223,0.0115,-0.0012,-0.0024,-0.0129,-0.0166,-0.025,-0.0252,-0.0258,-0.0259,-0.0241,-0.0241,-0.0241,-0.0241,-0.024,0,0.0337,0.0366,0.0381,0.0401,0.0453,0.0443,0.0483,0.047,0.0462,0.049,0.0388,0.0393,0.0231,0.0148,0.0019,-0.0119,-0.0111,-0.0237,-0.0267,-0.0239,-0.0238,-0.0247,-0.0247,-0.0243,-0.0242,-0.0242,-0.0242,0,0.0384,0.0391,0.0439,0.0466,0.0477,0.0517,0.0549,0.0581,0.0556,0.059,0.0583,0.0499,0.0394,0.0225,0.0059,-0.0066,-0.0206,-0.0259,-0.021,-0.0234,-0.0316,-0.0312,-0.0362,-0.0363,-0.0363,-0.0364,-0.0365,0,0.0411,0.0441,0.0489,0.0526,0.0539,0.0589,0.0633,0.063,0.0666,0.0669,0.0701,0.0607,0.0562,0.03,0.0064,-0.0167,-0.0201,-0.0296,-0.0322,-0.0303,-0.0328,-0.0323,-0.0319,-0.0311,-0.0311,-0.0311,-0.0311,0,0.0467,0.0482,0.0523,0.0599,0.0651,0.0711,0.077,0.0811,0.0832,0.0857,0.0891,0.0857,0.0611,0.0388,0.0061,-0.0098,-0.0262,-0.0305,-0.0299,-0.0282,-0.0259,-0.0283,-0.0279,-0.0312,-0.0312,-0.0312,-0.0312,-0.0312,0.0509,0.0549,0.0605,0.0678,0.0743,0.0829,0.0896,0.0959,0.1035,0.1092,0.1053,0.1015,0.0743,0.0337,0.0043,-0.0268,-0.0257,-0.0362,-0.036,-0.0358,-0.0338,-0.0319,-0.0378,-0.0379,-0.0379,-0.0379,-0.0379,0,0.0562,0.0606,0.068,0.0771,0.0857,0.0878,0.0988,0.106,0.1168,0.1215,0.1236,0.0999,0.0723,0.0403,-0.0052,-0.0327,-0.0353,-0.0416,-0.0382,-0.0379,-0.0377,-0.0358,-0.0404,-0.0405,-0.0405,-0.0406,0,0,0.059,0.0669,0.0708,0.0852,0.092,0.1042,0.1113,0.1214,0.1274,0.1328,0.131,0.1236,0.0843,0.0516,0.0131,-0.0134,-0.0195,-0.0191,-0.0141,-0.0053,-0.0048,-0.0315,-0.0278,0,0,0,0,0]}],[{"header":{"parameterUnit":"m.s-1","parameterCategory":2,"la1":30.2991,"la2":30.254,"lo1":-89.0895,"lo2":-89.0444,"dy":0.0017,"dx":0.0017,"nx":28,"ny":28,"refTime":"2024-02-18T03:00:00:Z","depth":"4","parameterNumber":2,"parameterNumberName":"U-component_of_CURRENTS"},"data":[0,0,0,0,0,0,0,0,0,0,0,0,0,0,0,0,0,0,0,0,0,0,0,0,0,0,0,0,0,0,0,0,0,0,0,0,0,0,0,0,0,0,0,0,0,0,0,0,0,0,0,0,0,0,0,0,0,0,0.1462,0.1463,0,0.1533,0.1534,0.1534,0.1589,0.159,0.159,0.1591,0.167,0.1672,0.1673,0,0,0,0,0,0,0,0,0,0,0,0,0,0.1371,0.1372,0.1462,0.1463,0.1464,0.1533,0.1534,0.1535,0.1589,0.159,0.159,0.1591,0.167,0.1671,0.1673,0,0,0,0,0,0,0,0,0,0,0,0,0,0.1421,0.1372,0.1462,0.1501,0.1505,0.1533,0.1534,0.1535,0.1589,0.159,0.1591,0.1592,0.1669,0.1671,0.1673,0.1666,0,0,0.168,0.1681,0,0,0,0,0,0,0,0,0.1418,0.1424,0.1494,0.1498,0.1503,0.1555,0.1531,0.158,0.1588,0.1555,0.1591,0.1592,0.1633,0.1638,0.1646,0.167,0.1673,0.168,0.1682,0.1683,0.1683,0,0,0,0,0,0,0,0.1414,0.1421,0.1488,0.1495,0.1501,0.1514,0.1522,0.154,0.1586,0.1558,0.1563,0.1573,0.1635,0.1644,0.1649,0.1675,0.168,0.1682,0.1684,0.1684,0.1795,0.1796,0,0,0,0,0,0,0.1409,0.1418,0.1486,0.1491,0.1465,0.1515,0.1524,0.1536,0.1586,0.1595,0.1572,0.1576,0.164,0.1646,0.1652,0.1737,0.1683,0.1685,0.1686,0.1793,0.1795,0.1797,0,0,0,0,0,0,0.1407,0.1414,0.1483,0.1457,0.1467,0.1516,0.1528,0.1537,0.1578,0.1597,0.1606,0.1609,0.1641,0.1649,0.1701,0.1737,0.1686,0.1688,0.1791,0.1794,0.1796,0.185,0,0,0,0,0,0,0.1404,0.1413,0.1434,0.1457,0.1469,0.1522,0.1528,0.1537,0.1582,0.1588,0.1631,0.1638,0.1642,0.1698,0.1703,0.174,0.1689,0.1789,0.1793,0.1795,0.1846,0.1854,0.1861,0,0,0,0,0,0.14,0.1419,0.1434,0.1443,0.1491,0.1523,0.1531,0.1566,0.1583,0.1607,0.1641,0.1638,0.1721,0.1701,0.1707,0.1745,0.1788,0.1792,0.1795,0.1843,0.1853,0.1861,0,0,0,0,0,0,0.1392,0.1427,0.1444,0.1475,0.1508,0.1533,0.1563,0.1583,0.1627,0.1644,0.1657,0.1667,0.1726,0.1727,0.1705,0.1786,0.1754,0.1759,0.1789,0.1798,0.1805,0.18,0.1691,0,0,0,0,0,0.1398,0.1426,0.1457,0.1487,0.1505,0.154,0.1563,0.1588,0.1622,0.1644,0.1674,0.1707,0.1739,0.1764,0.1788,0.1831,0.1832,0.186,0.1867,0.1873,0.1873,0.1906,0.1916,0.1809,0.1809,0.1809,0,0,0.1403,0.1429,0.1446,0.1488,0.1518,0.1548,0.1557,0.1604,0.1638,0.1644,0.171,0.1735,0.1756,0.1808,0.1834,0.1819,0.1907,0.1878,0.1883,0.1879,0.1911,0.1921,0.193,0.1811,0.1811,0.1811,0,0,0.1418,0.1453,0.1477,0.1508,0.1559,0.1578,0.1598,0.1642,0.1677,0.1732,0.175,0.1797,0.1846,0.1869,0.1884,0.1945,0.1943,0.1961,0.1996,0.2029,0.2038,0.2045,0.2068,0.2077,0.1966,0.1966,0.1966,0,0.1426,0.1461,0.1491,0.1523,0.1554,0.1594,0.1627,0.1663,0.1722,0.1754,0.1764,0.1851,0.1872,0.1929,0.1955,0.1961,0.1977,0.1961,0.2038,0.2045,0.2052,0.2073,0.2083,0.1969,0.1969,0.1968,0.1968,0,0.1449,0.149,0.1511,0.1563,0.1597,0.1638,0.1683,0.1731,0.1776,0.181,0.1888,0.1919,0.197,0.1989,0.1993,0.2059,0.2054,0.2041,0.2013,0.2066,0.2085,0.2094,0.1973,0.1972,0.1971,0.1971,0,0,0.1431,0.1511,0.1522,0.1556,0.1627,0.1653,0.1717,0.178,0.1831,0.1891,0.1954,0.2014,0.2041,0.2059,0.2077,0.2107,0.2175,0.2104,0.2104,0.2121,0.2251,0.213,0.2128,0.2182,0.2183,0.2185,0.2247,0,0.1445,0.1503,0.1544,0.1609,0.1642,0.1702,0.1757,0.1821,0.1882,0.1953,0.2,0.2068,0.2065,0.2105,0.2136,0.217,0.2201,0.2159,0.2201,0.2201,0.2083,0.2134,0.219,0.2253,0.2255,0.2257,0.2258,0,0.1448,0.149,0.1551,0.1636,0.1659,0.1707,0.1803,0.1862,0.196,0.2011,0.2082,0.2121,0.2193,0.2175,0.2254,0.2233,0.2249,0.2261,0.2264,0.2134,0.2096,0.2188,0.2273,0.2272,0.2271,0.227,0.2269,0,0.1404,0.1493,0.1543,0.1574,0.1672,0.1723,0.1787,0.1886,0.1939,0.206,0.2106,0.2191,0.2246,0.2282,0.2319,0.2301,0.2389,0.236,0.2262,0.2254,0.2319,0.231,0.2405,0.2405,0.2404,0.2404,0.2404,0,0.1385,0.1431,0.1535,0.1563,0.1634,0.1715,0.1801,0.1879,0.1981,0.2051,0.2139,0.2193,0.2278,0.2334,0.2349,0.2336,0.2417,0.2273,0.2263,0.2342,0.2335,0.2326,0.2316,0.2407,0.2406,0.2406,0.2405,0,0.1324,0.1394,0.1458,0.1574,0.1615,0.167,0.1796,0.1852,0.1965,0.2057,0.2098,0.2216,0.2299,0.2356,0.2428,0.2362,0.2369,0.2343,0.2437,0.243,0.2203,0.2196,0.2228,0.2224,0.2221,0.2218,0.2216,0,0.1294,0.1322,0.1448,0.149,0.155,0.1643,0.1704,0.1832,0.1885,0.2057,0.2085,0.2209,0.2279,0.2267,0.2349,0.2364,0.2336,0.2313,0.2237,0.2199,0.2187,0.2184,0.2181,0.2211,0.221,0.2209,0.2209,0,0.1235,0.1294,0.1347,0.1429,0.1504,0.1571,0.167,0.1686,0.1841,0.1957,0.2018,0.2062,0.2149,0.2195,0.2225,0.2232,0.2311,0.2279,0.2285,0.2213,0.2179,0.2169,0.217,0.2198,0.2199,0.22,0.2201,0,0.1195,0.1214,0.1289,0.1354,0.1437,0.1474,0.1536,0.1601,0.1663,0.1842,0.1872,0.2011,0.2139,0.213,0.2166,0.2159,0.2119,0.2029,0.2046,0.2059,0.1976,0.1906,0.1836,0,0,0,0,0,0.1142,0.1155,0.1208,0.1268,0.1345,0.1394,0.1501,0.1564,0.1706,0.1703,0.1775,0.1853,0.1909,0.1979,0.1938,0.2099,0.2129,0.2042,0.2034,0.2137,0.2149,0.2067,0,0,0,0,0,0,0.1105,0.1148,0.1171,0.118,0.1205,0.1275,0.1338,0.1439,0.1432,0.1585,0.1618,0.1742,0.1817,0.1916,0.1904,0.1926,0.1882,0.2132,0.2127,0.213,0.2141,0.2151,0.207,0,0,0,0,0]},{"header":{"parameterUnit":"m.s-1","parameterCategory":2,"la1":30.2991,"la2":30.254,"lo1":-89.0895,"lo2":-89.0444,"dy":0.0017,"dx":0.0017,"nx":28,"ny":28,"refTime":"2024-02-18T03:00:00:Z","depth":"4","parameterNumber":3,"parameterNumberName":"V-component_of_CURRENTS"},"data":[0,0,0,0,0,0,0,0,0,0,0,0,0,0,0,0,0,0,0,0,0,0,0,0,0,0,0,0,0,0,0,0,0,0,0,0,0,0,0,0,0,0,0,0,0,0,0,0,0,0,0,0,0,0,0,0,0,0,0.0082,0.0081,0,0.0031,0.003,0.0029,-0.0004,-0.0004,-0.0005,-0.0005,-0.0054,-0.0056,-0.0057,0,0,0,0,0,0,0,0,0,0,0,0,0,0.0117,0.0117,0.0082,0.0081,0.0081,0.0031,0.003,0.0029,-0.0004,-0.0004,-0.0005,-0.0005,-0.0054,-0.0055,-0.0057,0,0,0,0,0,0,0,0,0,0,0,0,0,0.0087,0.0117,0.0082,0.0058,0.0056,0.0031,0.003,0.0029,-0.0004,-0.0004,-0.0005,-0.0005,-0.0054,-0.0055,-0.0057,-0.0062,0,0,-0.0062,-0.0063,0,0,0,0,0,0,0,0,0.0089,0.0086,0.0062,0.006,0.0057,0.002,0.0024,-0.0001,-0.0004,0.0018,-0.0005,-0.0005,-0.0029,-0.0033,-0.0042,-0.0064,-0.0067,-0.0062,-0.0063,-0.0064,-0.0065,0,0,0,0,0,0,0,0.0091,0.0088,0.0061,0.0062,0.0058,0.0038,0.0034,0.0019,-0.0003,0.0016,0.0014,0.0009,-0.0031,-0.0041,-0.0044,-0.0067,-0.0062,-0.0064,-0.0065,-0.0066,-0.0101,-0.0101,0,0,0,0,0,0,0.01,0.009,0.0063,0.006,0.0073,0.0038,0.0033,0.0032,-0.0003,-0.0009,0.0009,0.0007,-0.0038,-0.0042,-0.0046,-0.0049,-0.0064,-0.0066,-0.0067,-0.0101,-0.0101,-0.0101,0,0,0,0,0,0,0.0101,0.0098,0.0065,0.0074,0.0068,0.0038,0.0036,0.0031,0.0021,-0.0009,-0.0015,0.0005,-0.0038,-0.0043,-0.0057,-0.0051,-0.0067,-0.0068,-0.0101,-0.0101,-0.0101,-0.0058,0,0,0,0,0,0,0.0102,0.0099,0.0102,0.0074,0.0068,0.0056,0.0036,0.003,0.0018,0.0016,-0.0014,-0.0019,-0.0039,-0.0054,-0.0059,-0.0054,-0.0069,-0.0102,-0.0101,-0.0101,-0.0059,-0.0056,-0.0054,0,0,0,0,0,0.0104,0.011,0.0103,0.0099,0.0073,0.0056,0.0051,0.0029,0.0019,0.0018,-0.0003,-0.0018,-0.0057,-0.0056,-0.0061,-0.0056,-0.0102,-0.0101,-0.0101,-0.0061,-0.0057,-0.0054,0,0,0,0,0,0,0.0126,0.0106,0.0098,0.0097,0.0081,0.0051,0.0049,0.0032,0.0014,0.0013,-0.0016,-0.0023,-0.0034,-0.0051,-0.0049,-0.0067,-0.0082,-0.0083,-0.0049,-0.0046,-0.0043,-0.0026,-0.0071,0,0,0,0,0,0.0133,0.0134,0.011,0.0111,0.0105,0.0078,0.0069,0.0054,0.0034,0.0025,0.0002,-0.002,-0.0037,-0.0046,-0.0065,-0.0072,-0.0093,-0.0073,-0.007,-0.0068,-0.0058,-0.009,-0.0089,-0.01,-0.01,-0.01,0,0,0.0142,0.0132,0.0131,0.0116,0.0102,0.01,0.0072,0.0063,0.0061,0.0023,0.0015,-0.001,-0.0038,-0.0048,-0.0054,-0.006,-0.0076,-0.0067,-0.0065,-0.0057,-0.0089,-0.0088,-0.0087,-0.01,-0.01,-0.01,0,0,0.0163,0.0151,0.016,0.015,0.0134,0.0119,0.0119,0.0092,0.008,0.0067,0.0039,0.0019,-0.0009,-0.0027,-0.004,-0.0032,-0.0061,-0.0039,-0.0009,-0.0039,-0.0039,-0.0038,-0.0065,-0.0068,-0.0036,-0.0036,-0.0036,0,0.0174,0.0181,0.016,0.0165,0.0163,0.0131,0.0141,0.0124,0.0095,0.0089,0.0072,0.0028,0.0002,-0.0008,-0.0008,-0.0024,-0.0045,-0.0018,-0.0035,-0.0035,-0.0035,-0.0063,-0.0066,-0.0034,-0.0034,-0.0034,-0.0034,0,0.0199,0.0206,0.021,0.021,0.0205,0.0207,0.0185,0.0176,0.0156,0.0135,0.0115,0.0076,0.0051,0.0037,0.0017,0.0006,-0.001,-0.0029,-0.0041,-0.0031,-0.0062,-0.0066,-0.0031,-0.0032,-0.0032,-0.0033,0,0,0.0222,0.0228,0.023,0.0242,0.0229,0.023,0.0231,0.0221,0.0223,0.0185,0.0183,0.0141,0.0114,0.0098,0.0067,0.0041,0.0015,0.0011,0.0008,-0.0011,-0.0051,-0.0061,-0.0067,-0.0007,-0.0008,-0.0008,-0.0072,0,0.0249,0.0277,0.0269,0.0297,0.0311,0.0289,0.0297,0.0282,0.0257,0.0245,0.0199,0.0183,0.0139,0.013,0.0095,0.0037,0.0007,0.0034,-0.0062,-0.0065,-0.0071,-0.0071,-0.0009,-0.0075,-0.0076,-0.0077,-0.0078,0,0.0275,0.0294,0.0328,0.0352,0.0356,0.0367,0.0373,0.0376,0.0348,0.0326,0.0293,0.0252,0.0211,0.0172,0.0076,0.0096,0.0029,-0.0021,-0.0025,-0.0049,-0.0082,-0.0089,-0.0085,-0.0085,-0.0084,-0.0083,-0.0083,0,0.0307,0.0335,0.0368,0.0373,0.0391,0.0406,0.0417,0.0402,0.0411,0.0379,0.0372,0.0309,0.0285,0.0194,0.0084,0.008,-0.0023,-0.0047,-0.0119,-0.012,-0.0111,-0.0111,-0.0114,-0.0114,-0.0114,-0.0114,-0.0113,0,0.0336,0.0364,0.0388,0.0405,0.0453,0.0452,0.0489,0.0482,0.048,0.0499,0.0422,0.0415,0.0289,0.0212,0.0105,-0.0017,-0.0013,-0.011,-0.0136,-0.0092,-0.0089,-0.0114,-0.0113,-0.0116,-0.0116,-0.0115,-0.0115,0,0.0362,0.0376,0.042,0.0454,0.047,0.0506,0.0546,0.057,0.0556,0.0577,0.0573,0.0495,0.0393,0.0256,0.0111,0.0018,-0.0102,-0.0147,-0.0083,-0.0105,-0.0184,-0.018,-0.0232,-0.0233,-0.0233,-0.0234,-0.0235,0,0.0376,0.0402,0.0458,0.0492,0.051,0.0561,0.06,0.061,0.0633,0.0628,0.0642,0.0556,0.0486,0.0276,0.0125,-0.0084,-0.0117,-0.0182,-0.019,-0.0175,-0.0196,-0.0191,-0.0186,-0.0236,-0.0236,-0.0236,-0.0236,0,0.0406,0.0427,0.0464,0.0536,0.0585,0.0641,0.0692,0.0714,0.0733,0.0722,0.0699,0.0586,0.0469,0.0292,0.0127,-0.0023,-0.0142,-0.0191,-0.0191,-0.0199,-0.018,-0.0199,-0.0194,-0.0239,-0.0238,-0.0238,-0.0238,0,0.0427,0.0459,0.0511,0.0573,0.0641,0.0701,0.0725,0.0754,0.0776,0.0764,0.0762,0.0627,0.0554,0.0324,0.0176,0.0021,-0.0024,-0.0078,-0.0085,-0.0084,-0.0029,0.0016,0.0,0,0,0,0,0,0.0444,0.0481,0.0543,0.0612,0.0682,0.0722,0.0778,0.0794,0.0813,0.0807,0.0783,0.0674,0.0454,0.0358,0.0202,0.0145,-0.0061,-0.0044,-0.0129,-0.0253,-0.025,-0.0213,0,0,0,0,0,0,0.0455,0.0513,0.0543,0.0633,0.0686,0.0765,0.0804,0.0818,0.0805,0.0802,0.0687,0.0633,0.0416,0.0548,0.0202,0.0154,0.0077,-0.0147,-0.0151,-0.0254,-0.0252,-0.0249,-0.021,0,0,0,0,0]}]]